This is the latest recevied weather packets stored in our database for station/object VA3BOO. If no packets are shown the sender has not sent any weather packets the latest 10 day(s).
| Time | Temp. | Humidity | Pressure | Rain* | Wind** | Luminosity | Snow |
|---|---|---|---|---|---|---|---|
| 1777755004 | 6.67° C | 79% | 1012.8 hPa | 0 mm | - | 110 W/m² | - |
| 1777754704 | 6.67° C | 78% | 1012.8 hPa | 0 mm | - | 109 W/m² | - |
| 1777754404 | 6.67° C | 78% | 1012.7 hPa | 0 mm | - | 117 W/m² | - |
| 1777754104 | 6.67° C | 77% | 1012.8 hPa | 0 mm | - | 156 W/m² | - |
| 1777753804 | 6.67° C | 79% | 1012.7 hPa | 0 mm | - | 172 W/m² | - |
| 1777753504 | 6.67° C | 79% | 1012.6 hPa | 0 mm | - | 160 W/m² | - |
| 1777753204 | 6.67° C | 79% | 1012.6 hPa | 0 mm | - | 144 W/m² | - |
| 1777752904 | 6.67° C | 78% | 1012.6 hPa | 0 mm | - | 132 W/m² | - |
| 1777752604 | 6.67° C | 77% | 1012.5 hPa | 0 mm | - | 123 W/m² | - |
| 1777752304 | 6.67° C | 75% | 1012.8 hPa | 0 mm | - | 128 W/m² | - |
| 1777752004 | 7.22° C | 72% | 1013 hPa | 0 mm | - | 115 W/m² | - |
| 1777751704 | 7.22° C | 71% | 1012.8 hPa | 0 mm | - | 132 W/m² | - |
| 1777751404 | 7.78° C | 69% | 1013 hPa | 0 mm | - | 140 W/m² | - |
| 1777751104 | 7.78° C | 70% | 1013.1 hPa | 0 mm | - | 149 W/m² | - |
| 1777750804 | 7.78° C | 67% | 1012.9 hPa | 0 mm | - | 179 W/m² | - |
| 1777750504 | 8.33° C | 65% | 1013 hPa | 0 mm | - | 229 W/m² | - |
| 1777750204 | 8.89° C | 62% | 1013.1 hPa | 0 mm | - | 284 W/m² | - |
| 1777749904 | 8.89° C | 64% | 1013.2 hPa | 0 mm | - | 402 W/m² | - |
| 1777749604 | 8.33° C | 64% | 1013.1 hPa | 0 mm | - | 476 W/m² | - |
| 1777749304 | 8.33° C | 64% | 1013.1 hPa | 0 mm | - | 358 W/m² | - |
| 1777749004 | 7.78° C | 63% | 1012.9 hPa | 0 mm | - | 309 W/m² | - |
| 1777748704 | 8.33° C | 63% | 1012.9 hPa | 0 mm | - | 253 W/m² | - |
| 1777748404 | 8.33° C | 64% | 1013.1 hPa | 0 mm | - | 284 W/m² | - |
| 1777748104 | 8.33° C | 63% | 1012.9 hPa | 0 mm | - | 307 W/m² | - |
| 1777747804 | 8.89° C | 62% | 1012.9 hPa | 0 mm | - | 539 W/m² | - |
* Rain latest hour (hover to see other rain measurements)
** Current wind speed in m/s (hover to see current wind gust speed)